SL-14 DEB

Satellite information

Favourite Embed

Satellite Type and Status

DEBRISIN ORBIT

Key statistics

Satellite SL-14 DEB at a glance.

Uptime

17222

Days in orbit

Revolutions

≈ 12.1

Per day

Orbit

MEO

Medium Earth Orbit

Inclination

82.0

Latest

Satellite identification and parameters

Extended collection of information and parameters for SL-14 DEB.

Object identification

Identified? True

Debris? True

Object name: SL-14 DEB

International designator: 1978-100AE

Object number (NORAD): 19295

Object ID (CCSDS): 19295

Country: COMMONWEALTH OF INDEPENDENT STATES (CIS)

Current information (Y/N): Y

RCS size: SMALL

Orbital parameters

Period: 119.304 minutes

Inclination: 81.9823 deg

SMA: 8027.816 km

Apoapsis: 2053.775 km

Periapsis: 1245.586 km

RAAN: 140.8873 deg

Eccentricy: 0.05033678

Argument of periapsis: 332.608 deg

Mean anomaly: 185.5766 deg

Mean motion: 12.0699835 rev/day

Mean motion (dot): 0.00000479 rev/day2

B* drag term: 0.0036792221 1/REarth

Two-line elements (TLE)

Creation date: Nov. 11, 2025, 4:56 a.m.

Reference frame: TEME

Reference center: EARTH

Epoch: Nov. 10, 2025, 10:52 p.m. UTC

TLE line 0: 0 SL-14 DEB

TLE line 1: 1 19295U 78100AE 25314.95334316 .00000479 00000-0 36792-2 0 9990

TLE line 2: 2 19295 81.9823 140.8873 0503368 332.6080 185.5766 12.06998350646824

Live tracking on map

Real-time ground track for satellite SL-14 DEB.

In-orbit conjunctions

A list of the most updated potential collisions computed for object SL-14 DEB.

Target Orbit TCA Probability of collision Miss distance Type
COSMOS 1194 LEO 2024-11-29 14:26:58 0.0001620416 701.0 (m) PAYLOAD

Associated space launch

Mass model of the Meteor-2 meteorological satellite

SL-14 DEB was lifted into orbit during the mission ‘Tsiklon-3 | Meteor-2-GVM’, on board a Tsiklon-3 space rocket.

The launch took place on Oct. 26, 1978, 7 a.m. from 32/2.

For more information about the launch, click the button.

Launch to space Tsiklon-3 | Meteor-2-GVM
Tsiklon-3 | Meteor-2-GVM

Agency: N/A

Status: Launch Successful

Launch date: Oct. 26, 1978, 7 a.m. UTC

Rocket: Tsiklon-3

Launch pad: 32/2

Location: Plesetsk Cosmodrome, Russian Federation

...

Latest news about this satellite

There are no fresh news available about this satellite. Check back as we update our databases every day.


Newsletter sign-up

Weekly statistics, charts and insights to help you stay on top of the space industry.